Starlink 32803

operational
NORAD ID: 63024 Int'l Des: 2025-032 Owner: SPXS Country: US Constellation: starlink
LEOCIRCULAR

Über Starlink 32803

Beschreibung wird geladen...

Live-Position

3D-Globus wird geladen...

Nächste Überflüge

Höhenverlauf

Altitude vs Time

uPlot chart will show altitude changes over time

Zweizeiliger Elementsatz

1 63024U 25032V 25306.38972922 .00036458 00000-0 13268-2 0 9993
2 63024 43.0059 334.7502 0000316 20.3928 339.6936 15.27607390 40997
Epoch: 2. Nov. 2025 • Age: 28 hours

Aktueller Status

Höhe 484.7 km
Geschwindigkeit 7.62 km/s
Subsatellitenpunkt -10.81°S, 76.26°W
Startdatum 15. Feb. 2025
Alter 0.7 years
Typ internet

Technische Details

Klassifizierung Payload
Masse 730.00 kg
Trockenmasse 700.00 kg
Gesamtmasse 730.00 kg
Länge 0.30 m
Durchmesser 4.10 m
Spannweite 29.00 m
Form Box + pan
Hersteller SPXS
Bus-Typ Starlink V2M
Phasenstatus In Orbit
Besitzer/Staat SPXS/US

Große Konstellationen

Loading constellations...